AirNav   Phillips 66 Aviation Fuel
 
 1154 users online  

5J9 Twin City Airport
Loris, South Carolina, USA

GOING TO LORIS?


FAA INFORMATION EFFECTIVE 16 AUGUST 2018

Location

FAA Identifier: 5J9
Lat/Long: 34-05-18.3000N / 078-51-53.7000W
34-05.305000N / 078-51.895000W
34.0884167 / -78.8649167
(estimated)
Elevation: 99.3 ft. / 30.3 m (surveyed)
Variation: 08W (2000)
From city: 3 miles NE of LORIS, SC
Time zone: UTC -4 (UTC -5 during Standard Time)
Zip code: 29569

Airport Operations

Airport use: Open to the public
Activation date: 07/1961
Control tower: no
ARTCC: JACKSONVILLE CENTER
FSS: ANDERSON FLIGHT SERVICE STATION
NOTAMs facility: AND (NOTAM-D service available)
Attendance: UNATNDD
Wind indicator: lighted
Segmented circle: yes
Beacon: white-green (lighted land airport)
Operates sunset to sunrise.

Airport Communications

CTAF: 122.9
MYRTLE BEACH APPROACH: 119.2
MYRTLE BEACH DEPARTURE: 119.2
WX AWOS-3 at CPC (13 nm NE): 118.375 (910-642-7508)
WX ASOS at CRE (18 nm SE): PHONE 843-361-2802
  • APCH/DEP SERVICE PROVIDED BY JACKSONVILLE ARTCC ON FREQ 134.375/317.550 (MYRTLE BEACH RCAG) WHEN MYRTLE BEACH APCH CTL CLOSED.

Nearby radio navigation aids

VOR radial/distance  VOR name  Freq  Var
CREr340/17.9GRAND STRAND VORTAC117.6003W

 
NDB name  Hdg/Dist  Freq  Var  ID
CAMP221/13.422707WCPC -.-. .--. -.-.
HORRY047/20.637008WHYW .... -.-- .--
ELIZABETHTOWN221/31.639808WTGQ - --. --.-
ROBESON171/33.035908WRSY .-. ... -.--
DILLON140/33.127409WDLC -.. .-.. -.-.

Airport Services

Parking: tiedowns
Airframe service: NONE
Powerplant service: NONE
Bottled oxygen: NONE
Bulk oxygen: NONE

Runway Information

Runway 8/26

Dimensions: 3694 x 60 ft. / 1126 x 18 m
Surface: asphalt, in good condition
Weight bearing capacity: 
Single wheel: 8.0
Runway edge lights: low intensity
RUNWAY 8  RUNWAY 26
Latitude: 34-05.218735N34-05.390357N
Longitude: 078-52.246725W078-51.544410W
Elevation: 99.2 ft.99.3 ft.
Traffic pattern: leftleft
Runway heading: 082 magnetic, 074 true262 magnetic, 254 true
Displaced threshold: 200 ft.no
Markings: basic, in good conditionbasic, in good condition
Visual slope indicator: 2-box SAVASI on left (3.50 degrees glide path)
Touchdown point: yes, no lightsyes, no lights
Obstructions: 17 ft. road, 200 ft. from runway, 1:1 slope to clear
RWY 08 ROADWAY AND 50FT TREES 150' TO 175' R;DIST 0 TO 200 FT FROM RWY. AIRCRAFT ACTIVITY APRON 150FT R, DIST 0 TO 125' FROM RWY.
80 ft. trees, 1804 ft. from runway, 261 ft. right of centerline, 20:1 slope to clear

Airport Ownership and Management from official FAA records

Ownership: Publicly-owned
Owner: HORRY COUNTY
PO BOX 1236
CONWAY, SC 29526
Phone 843-448-1580
Manager: SCOTT VAN MOPPES
1100 JETPORT RD
MYRTLE BEACH, SC 29577
Phone 843-448-1580

Airport Operational Statistics

Aircraft based on the field: 10
Single engine airplanes: 9
Multi engine airplanes: 1
    
Aircraft operations: avg 23/week *
50% transient general aviation
50% local general aviation
* for 12-month period ending 24 August 2017

Additional Remarks

E67 NAVD88
30 FT POWER LINE 180 FT SOUTH OF RWY 8-26.
BIRDS ON AND INVOF ARPT.

Instrument Procedures

NOTE: All procedures below are presented as PDF files. If you need a reader for these files, you should download the free Adobe Reader.

NOT FOR NAVIGATION. Please procure official charts for flight.
FAA instrument procedures published for use from 16 August 2018 at 0901Z to 13 September 2018 at 0900Z.

 
IAPs - Instrument Approach Procedures
GPS RWY 26   download (122KB)
NOTE: Special Take-Off Minimums/Departure Procedures apply   download (141KB)

Other nearby airports with instrument procedures:

KCPC - Columbus County Municipal Airport (13 nm NE)
KCRE - Grand Strand Airport (18 nm SE)
KHYW - Conway-Horry County Airport (20 nm SW)
KMAO - Marion County Airport (24 nm W)
KMYR - Myrtle Beach International Airport (25 nm S)
 
Loc | Ops | Rwys | IFR | FBO | Links
Com | Nav | Svcs | Stats | Notes


 
Area around 5J9 (Twin City Airport)
 
Road maps at: MapQuest Bing Google
 
Aerial photo
WARNING: Photo may not be current or correct
Aerial photo of 5J9 (Twin City Airport)
Do you have a better or more recent aerial photo of Twin City Airport that you would like to share? If so, please send us your photo.

 
Sectional chart

 
Airport distance calculator
Flying to Twin City Airport? Find the distance to fly.

From to 5J9

Sunrise and sunset
Times for 18-Aug-2018
 Local
(UTC-4)
 Zulu
(UTC)
Morning civil twilight06:1410:14
Sunrise06:4010:40
Sunset19:5923:59
Evening civil twilight20:2500:25

Current date and time
Zulu (UTC)  18-Aug-2018 15:29:31
Local (UTC-4)  18-Aug-2018 11:29:31
 
METAR
KCPC 
13nm NE 
181510Z AUTO 20011KT 10SM SCT023 29/23 A3006 RMK AO2 T02900229
KCRE 
18nm SE 
181453Z 24010G17KT 10SM CLR 28/22 A3007 RMK AO1 SLP184 T02830222 58005
KHYW 
20nm SW 
181515Z AUTO 22009KT 5SM HZ SCT023 SCT029 28/25 A3008 RMK AO2
KMAO 
24nm W 
181515Z AUTO 21006G14KT 4SM HZ SCT024 SCT031 28/22 A3006 RMK AO2
KMYR 
25nm S 
181456Z 25012KT 10SM FEW035 29/23 A3010 RMK AO2 SLP191 T02890228 58006
TAF
KCRE 
18nm SE 
181120Z 1812/1912 23011KT P6SM BKN120 FM181700 22016G22KT P6SM FEW050 SCT120 TEMPO 1821/1824 VRB25KT 4SM SHRA BKN040 OVC250 FM190000 22016G22KT P6SM VCTS BKN050CB OVC250 FM190300 23013KT P6SM OVC100 FM190900 23008KT P6SM VCSH SCT040
NOTAMs
Click for the latest NOTAMs
NOTAMs are issued by the DoD/FAA and will open in a separate window not controlled by AirNav.

 

 
 

Would you like to see your business listed on this page?

 If your business provides an interesting product or service to pilots, flight crews, aircraft, or users of the Twin City Airport, you should consider listing it here.  To start the listing process, click on the button below
 
Add a business
 

Other Pages about Twin City Airport

www.horrycounty.org/...
 
Update a link
 
Copyright © AirNav, LLC. All rights reserved. Privacy Policy  Contact